International Skating Union - Official Site

Essent ISU World Cup Salt lake City
November 15-17, 2013

Draw | Lap Times | Index | World Cup

Referee: Susan  SANDVIG-SHOBE  (USA)
Starter: Garth  LINDER  (USA)
StartTime: EndTime: Air Temp: Ice Temp: Humidity:
08:40 10:18 18℃ -8℃ 28
Result 5000m Men Division B
Rankings as of Nov 17 2013 10:24AM
Rank: No.: Name: Nation: Time: Behind: Points:
1 141 Daniil  Sinitsyn RUS RUS 6:14.01200m - 19.71 - (19.7)
600m - 48.78 - (29.0)
1000m - 1:18.55 - (29.7)
1400m - 1:47.59 - (29.0)
1800m - 2:17.16 - (29.5)
2200m - 2:46.30 - (29.1)
2600m - 3:15.92 - (29.6)
3000m - 3:45.28 - (29.3)
3400m - 4:14.65 - (29.3)
3800m - 4:44.02 - (29.3)
4200m - 5:13.66 - (29.6)
4600m - 5:43.77 - (30.1)
5000m - 6:14.01 - (30.2)
32
2 97 Douwe  de Vries NED NED 6:14.53200m - 19.01 - (19.0)
600m - 48.46 - (29.4)
1000m - 1:18.26 - (29.8)
1400m - 1:47.91 - (29.6)
1800m - 2:17.50 - (29.5)
2200m - 2:47.13 - (29.6)
2600m - 3:16.61 - (29.4)
3000m - 3:45.95 - (29.3)
3400m - 4:15.47 - (29.5)
3800m - 4:45.28 - (29.8)
4200m - 5:14.86 - (29.5)
4600m - 5:44.62 - (29.7)
5000m - 6:14.53 - (29.9)
0.52 27
3 118 Shane  Dobbin NZL NZL 6:15.97200m - 18.92 - (18.9)
600m - 47.49 - (28.5)
1000m - 1:16.63 - (29.1)
1400m - 1:46.32 - (29.6)
1800m - 2:16.16 - (29.8)
2200m - 2:46.11 - (29.9)
2600m - 3:16.17 - (30.0)
3000m - 3:45.89 - (29.7)
3400m - 4:15.56 - (29.6)
3800m - 4:45.30 - (29.7)
4200m - 5:15.16 - (29.8)
4600m - 5:45.15 - (29.9)
5000m - 6:15.97 - (30.8)
1.96 23
4 139 Aleksandr  Rumyantsev RUS RUS 6:17.99200m - 19.42 - (19.4)
600m - 48.88 - (29.4)
1000m - 1:18.11 - (29.2)
1400m - 1:47.70 - (29.5)
1800m - 2:17.14 - (29.4)
2200m - 2:46.77 - (29.6)
2600m - 3:16.51 - (29.7)
3000m - 3:46.20 - (29.6)
3400m - 4:15.92 - (29.7)
3800m - 4:45.77 - (29.8)
4200m - 5:15.70 - (29.9)
4600m - 5:46.26 - (30.5)
5000m - 6:17.99 - (31.7)
3.98 19
5 156 Emery  Lehman USA USA 6:19.86200m - 19.84 - (19.8)
600m - 49.20 - (29.3)
1000m - 1:18.32 - (29.1)
1400m - 1:48.43 - (30.1)
1800m - 2:18.52 - (30.0)
2200m - 2:48.08 - (29.5)
2600m - 3:17.68 - (29.5)
3000m - 3:47.51 - (29.8)
3400m - 4:17.18 - (29.6)
3800m - 4:46.96 - (29.7)
4200m - 5:16.90 - (29.9)
4600m - 5:47.79 - (30.8)
5000m - 6:19.86 - (32.0)
5.85 15
6 42 Alexej  Baumgärtner GER GER 6:20.90200m - 19.01 - (19.0)
600m - 47.91 - (28.8)
1000m - 1:17.04 - (29.1)
1400m - 1:46.29 - (29.2)
1800m - 2:15.66 - (29.3)
2200m - 2:45.24 - (29.5)
2600m - 3:14.91 - (29.6)
3000m - 3:45.18 - (30.2)
3400m - 4:15.77 - (30.5)
3800m - 4:46.74 - (30.9)
4200m - 5:17.72 - (30.9)
4600m - 5:49.40 - (31.6)
5000m - 6:20.90 - (31.5)
6.89 11
7 40 Ewen  Fernandez FRA FRA 6:21.43200m - 18.44 - (18.4)
600m - 47.82 - (29.3)
1000m - 1:17.88 - (30.0)
1400m - 1:48.65 - (30.7)
1800m - 2:19.30 - (30.6)
2200m - 2:49.82 - (30.5)
2600m - 3:20.18 - (30.3)
3000m - 3:50.45 - (30.2)
3400m - 4:20.82 - (30.3)
3800m - 4:51.08 - (30.2)
4200m - 5:21.24 - (30.1)
4600m - 5:51.20 - (29.9)
5000m - 6:21.43 - (30.2)
7.42 9
8 140 Yevgeny  Seryaev RUS RUS 6:21.60200m - 20.01 - (20.0)
600m - 49.01 - (28.9)
1000m - 1:18.28 - (29.2)
1400m - 1:47.72 - (29.4)
1800m - 2:17.71 - (29.9)
2200m - 2:47.43 - (29.7)
2600m - 3:17.21 - (29.7)
3000m - 3:47.23 - (30.0)
3400m - 4:17.55 - (30.3)
3800m - 4:47.87 - (30.3)
4200m - 5:18.20 - (30.3)
4600m - 5:49.43 - (31.2)
5000m - 6:21.60 - (32.1)
7.59 7
9 92 Haralds  Silovs LAT LAT 6:23.35200m - 19.01 - (19.0)
600m - 48.41 - (29.3)
1000m - 1:18.50 - (30.0)
1400m - 1:49.15 - (30.6)
1800m - 2:19.40 - (30.2)
2200m - 2:49.91 - (30.5)
2600m - 3:20.17 - (30.2)
3000m - 3:50.91 - (30.7)
3400m - 4:21.28 - (30.3)
3800m - 4:51.68 - (30.4)
4200m - 5:22.40 - (30.7)
4600m - 5:52.79 - (30.3)
5000m - 6:23.35 - (30.5)
9.34 6
10 83 Cheol-Min  Kim KOR KOR 6:24.39200m - 19.58 - (19.5)
600m - 48.89 - (29.3)
1000m - 1:18.53 - (29.6)
1400m - 1:48.36 - (29.8)
1800m - 2:18.32 - (29.9)
2200m - 2:48.23 - (29.9)
2600m - 3:18.37 - (30.1)
3000m - 3:48.61 - (30.2)
3400m - 4:19.28 - (30.6)
3800m - 4:50.12 - (30.8)
4200m - 5:21.35 - (31.2)
4600m - 5:52.84 - (31.4)
5000m - 6:24.39 - (31.5)
10.38 5
11 69 Shane  Williamson JPN JPN 6:24.81200m - 19.76 - (19.7)
600m - 50.35 - (30.5)
1000m - 1:21.42 - (31.0)
1400m - 1:52.27 - (30.8)
1800m - 2:22.87 - (30.6)
2200m - 2:53.96 - (31.0)
2600m - 3:23.53 - (29.5)
3000m - 3:52.58 - (29.0)
3400m - 4:22.15 - (29.5)
3800m - 4:52.24 - (30.0)
4200m - 5:22.94 - (30.6)
4600m - 5:53.70 - (30.7)
5000m - 6:24.81 - (31.1)
10.80 4
12 56 Andrea  Giovannini ITA ITA 6:25.24200m - 19.01 - (19.0)
600m - 49.23 - (30.2)
1000m - 1:20.05 - (30.8)
1400m - 1:50.55 - (30.5)
1800m - 2:21.18 - (30.6)
2200m - 2:51.38 - (30.1)
2600m - 3:21.77 - (30.3)
3000m - 3:52.23 - (30.4)
3400m - 4:22.79 - (30.5)
3800m - 4:53.33 - (30.5)
4200m - 5:23.87 - (30.5)
4600m - 5:54.44 - (30.5)
5000m - 6:25.24 - (30.8)
11.23 3
13 9 Jordan  Belchos CAN CAN 6:25.28200m - 19.51 - (19.5)
600m - 48.87 - (29.3)
1000m - 1:18.52 - (29.6)
1400m - 1:48.29 - (29.7)
1800m - 2:18.12 - (29.8)
2200m - 2:48.17 - (30.0)
2600m - 3:18.56 - (30.3)
3000m - 3:49.03 - (30.4)
3400m - 4:20.22 - (31.1)
3800m - 4:51.06 - (30.8)
4200m - 5:22.27 - (31.2)
4600m - 5:53.61 - (31.3)
5000m - 6:25.28 - (31.6)
11.27 2
14 126 Konrad  Niedzwiedzki POL POL 6:25.62200m - 19.00 - (19.0)
600m - 48.54 - (29.5)
1000m - 1:18.90 - (30.3)
1400m - 1:48.99 - (30.0)
1800m - 2:19.53 - (30.5)
2200m - 2:50.05 - (30.5)
2600m - 3:20.88 - (30.8)
3000m - 3:51.39 - (30.5)
3400m - 4:21.92 - (30.5)
3800m - 4:52.54 - (30.6)
4200m - 5:23.99 - (31.4)
4600m - 5:54.79 - (30.8)
5000m - 6:25.62 - (30.8)
11.61 1
15 114 Simen Spieler  Nilsen NOR NOR 6:26.26200m - 19.08 - (19.0)
600m - 48.52 - (29.4)
1000m - 1:18.81 - (30.2)
1400m - 1:49.88 - (31.0)
1800m - 2:19.98 - (30.0)
2200m - 2:50.57 - (30.5)
2600m - 3:21.24 - (30.6)
3000m - 3:52.16 - (30.9)
3400m - 4:22.89 - (30.7)
3800m - 4:53.81 - (30.9)
4200m - 5:24.77 - (30.9)
4600m - 5:55.53 - (30.7)
5000m - 6:26.26 - (30.7)
12.25 0
16 86 Byung-Wook  Ko KOR KOR 6:26.46200m - 19.28 - (19.2)
600m - 48.85 - (29.5)
1000m - 1:18.57 - (29.7)
1400m - 1:48.34 - (29.7)
1800m - 2:18.22 - (29.8)
2200m - 2:48.12 - (29.9)
2600m - 3:18.16 - (30.0)
3000m - 3:48.69 - (30.5)
3400m - 4:19.75 - (31.0)
3800m - 4:50.69 - (30.9)
4200m - 5:21.95 - (31.2)
4600m - 5:53.54 - (31.5)
5000m - 6:26.46 - (32.9)
12.45 0
17 15 Mathieu  Giroux CAN CAN 6:26.69200m - 19.25 - (19.2)
600m - 49.99 - (30.7)
1000m - 1:20.95 - (30.9)
1400m - 1:51.46 - (30.5)
1800m - 2:21.96 - (30.5)
2200m - 2:52.46 - (30.5)
2600m - 3:23.09 - (30.6)
3000m - 3:53.46 - (30.3)
3400m - 4:23.93 - (30.4)
3800m - 4:54.27 - (30.3)
4200m - 5:25.13 - (30.8)
4600m - 5:55.91 - (30.7)
5000m - 6:26.69 - (30.7)
12.68 0
18 125 Sebastian  Druszkiewicz POL POL 6:27.73200m - 19.52 - (19.5)
600m - 49.75 - (30.2)
1000m - 1:19.77 - (30.0)
1400m - 1:50.32 - (30.5)
1800m - 2:20.50 - (30.1)
2200m - 2:50.87 - (30.3)
2600m - 3:21.26 - (30.3)
3000m - 3:51.90 - (30.6)
3400m - 4:22.57 - (30.6)
3800m - 4:53.55 - (30.9)
4200m - 5:24.49 - (30.9)
4600m - 5:55.87 - (31.3)
5000m - 6:27.73 - (31.8)
13.72 0
19 159 Patrick  Meek USA USA 6:27.92200m - 19.83 - (19.8)
600m - 49.83 - (30.0)
1000m - 1:20.34 - (30.5)
1400m - 1:51.09 - (30.7)
1800m - 2:21.50 - (30.4)
2200m - 2:51.90 - (30.4)
2600m - 3:22.08 - (30.1)
3000m - 3:52.61 - (30.5)
3400m - 4:23.07 - (30.4)
3800m - 4:53.75 - (30.6)
4200m - 5:24.61 - (30.8)
4600m - 5:56.11 - (31.5)
5000m - 6:27.92 - (31.8)
13.91 0
20 82 Hyong-Jun  Joo KOR KOR 6:28.41200m - 19.32 - (19.3)
600m - 50.20 - (30.8)
1000m - 1:21.07 - (30.8)
1400m - 1:52.14 - (31.0)
1800m - 2:22.69 - (30.5)
2200m - 2:53.16 - (30.4)
2600m - 3:23.47 - (30.3)
3000m - 3:53.84 - (30.3)
3400m - 4:24.05 - (30.2)
3800m - 4:54.61 - (30.5)
4200m - 5:25.38 - (30.7)
4600m - 5:56.70 - (31.3)
5000m - 6:28.41 - (31.7)
14.40 0
21 28 Longjiang  Sun CHN CHN 6:28.46200m - 19.14 - (19.1)
600m - 48.70 - (29.5)
1000m - 1:19.04 - (30.3)
1400m - 1:49.90 - (30.8)
1800m - 2:20.59 - (30.6)
2200m - 2:50.76 - (30.1)
2600m - 3:21.29 - (30.5)
3000m - 3:51.64 - (30.3)
3400m - 4:21.90 - (30.2)
3800m - 4:52.29 - (30.3)
4200m - 5:22.99 - (30.6)
4600m - 5:54.52 - (31.5)
5000m - 6:28.46 - (33.9)
14.45 0
22 49 Jonas  Pflug GER GER 6:29.28200m - 19.88 - (19.8)
600m - 50.34 - (30.4)
1000m - 1:20.57 - (30.2)
1400m - 1:51.08 - (30.5)
1800m - 2:21.28 - (30.2)
2200m - 2:51.73 - (30.4)
2600m - 3:22.28 - (30.5)
3000m - 3:52.83 - (30.5)
3400m - 4:23.37 - (30.5)
3800m - 4:54.16 - (30.7)
4200m - 5:25.55 - (31.3)
4600m - 5:57.30 - (31.7)
5000m - 6:29.28 - (31.9)
15.27 0
23 20 Lucas  Makowsky CAN CAN 6:29.71 (1) 200m - 19.12 - (19.1)
600m - 48.94 - (29.8)
1000m - 1:18.76 - (29.8)
1400m - 1:48.74 - (29.9)
1800m - 2:18.88 - (30.1)
2200m - 2:49.05 - (30.1)
2600m - 3:19.54 - (30.4)
3000m - 3:50.43 - (30.8)
3400m - 4:21.71 - (31.2)
3800m - 4:53.24 - (31.5)
4200m - 5:25.05 - (31.8)
4600m - 5:57.12 - (32.0)
5000m - 6:29.71 - (32.5)
15.70 0
24 148 Nils  van der Poel SWE SWE 6:29.71 (3) 200m - 19.82 - (19.8)
600m - 50.64 - (30.8)
1000m - 1:21.20 - (30.5)
1400m - 1:51.94 - (30.7)
1800m - 2:23.00 - (31.0)
2200m - 2:53.78 - (30.7)
2600m - 3:24.59 - (30.8)
3000m - 3:55.30 - (30.7)
3400m - 4:25.97 - (30.6)
3800m - 4:56.70 - (30.7)
4200m - 5:27.65 - (30.9)
4600m - 5:58.71 - (31.0)
5000m - 6:29.71 - (31.0)
15.70 0
25 87 Jin-Yeong  Lee KOR KOR 6:29.75200m - 19.51 - (19.5)
600m - 50.24 - (30.7)
1000m - 1:21.04 - (30.8)
1400m - 1:51.63 - (30.5)
1800m - 2:22.29 - (30.6)
2200m - 2:53.04 - (30.7)
2600m - 3:23.78 - (30.7)
3000m - 3:54.86 - (31.0)
3400m - 4:25.68 - (30.8)
3800m - 4:56.84 - (31.1)
4200m - 5:27.72 - (30.8)
4600m - 5:58.63 - (30.9)
5000m - 6:29.75 - (31.1)
15.74 0
26 54 Marco  Cignini ITA ITA 6:29.79200m - 19.64 - (19.6)
600m - 49.94 - (30.2)
1000m - 1:19.97 - (30.0)
1400m - 1:50.17 - (30.2)
1800m - 2:20.53 - (30.3)
2200m - 2:50.63 - (30.0)
2600m - 3:21.08 - (30.4)
3000m - 3:51.60 - (30.5)
3400m - 4:22.41 - (30.8)
3800m - 4:53.38 - (30.9)
4200m - 5:24.94 - (31.5)
4600m - 5:56.96 - (32.0)
5000m - 6:29.79 - (32.8)
15.78 0
27 4 Ferre  Spruyt BEL BEL 6:33.43200m - 19.04 - (19.0)
600m - 48.72 - (29.6)
1000m - 1:19.19 - (30.4)
1400m - 1:50.19 - (31.0)
1800m - 2:21.66 - (31.4)
2200m - 2:52.82 - (31.1)
2600m - 3:24.19 - (31.3)
3000m - 3:55.62 - (31.4)
3400m - 4:27.15 - (31.5)
3800m - 4:58.68 - (31.5)
4200m - 5:30.23 - (31.5)
4600m - 6:01.97 - (31.7)
5000m - 6:33.43 - (31.4)
19.42 0
28 8 Vitaly  Mikhailov BLR BLR 6:34.70200m - 19.77 - (19.7)
600m - 49.80 - (30.0)
1000m - 1:19.45 - (29.6)
1400m - 1:49.77 - (30.3)
1800m - 2:20.37 - (30.6)
2200m - 2:51.25 - (30.8)
2600m - 3:22.20 - (30.9)
3000m - 3:53.40 - (31.2)
3400m - 4:24.94 - (31.5)
3800m - 4:57.06 - (32.1)
4200m - 5:29.53 - (32.4)
4600m - 6:01.83 - (32.3)
5000m - 6:34.70 - (32.8)
20.69 0
29 146 Roger  Schneider SUI SUI 6:36.12200m - 20.20 - (20.1)
600m - 50.21 - (30.0)
1000m - 1:21.09 - (30.8)
1400m - 1:52.53 - (31.4)
1800m - 2:24.57 - (32.0)
2200m - 2:56.12 - (31.5)
2600m - 3:28.07 - (31.9)
3000m - 3:59.94 - (31.8)
3400m - 4:31.21 - (31.2)
3800m - 5:02.35 - (31.1)
4200m - 5:33.33 - (30.9)
4600m - 6:04.56 - (31.2)
5000m - 6:36.12 - (31.5)
22.11 0
30 32 Viktor-Hald  Thorup DEN DEN 6:36.17200m - 20.03 - (20.0)
600m - 50.48 - (30.4)
1000m - 1:21.22 - (30.7)
1400m - 1:52.16 - (30.9)
1800m - 2:23.38 - (31.2)
2200m - 2:54.03 - (30.6)
2600m - 3:24.72 - (30.6)
3000m - 3:55.77 - (31.0)
3400m - 4:27.26 - (31.4)
3800m - 4:58.94 - (31.6)
4200m - 5:30.84 - (31.8)
4600m - 6:03.37 - (32.5)
5000m - 6:36.17 - (32.8)
22.16 0
31 3 Bram  Smallenbroek AUT AUT 6:36.76200m - 19.16 - (19.1)
600m - 49.04 - (29.8)
1000m - 1:19.87 - (30.8)
1400m - 1:50.45 - (30.5)
1800m - 2:21.21 - (30.7)
2200m - 2:51.92 - (30.7)
2600m - 3:22.83 - (30.9)
3000m - 3:53.94 - (31.1)
3400m - 4:25.40 - (31.4)
3800m - 4:56.80 - (31.4)
4200m - 5:29.06 - (32.2)
4600m - 6:02.47 - (33.4)
5000m - 6:36.76 - (34.2)
22.75 0
32 124 Roland  Cieslak POL POL 6:38.29200m - 20.21 - (20.2)
600m - 51.11 - (30.8)
1000m - 1:22.13 - (31.0)
1400m - 1:53.08 - (30.9)
1800m - 2:24.30 - (31.2)
2200m - 2:55.72 - (31.4)
2600m - 3:27.61 - (31.8)
3000m - 3:59.37 - (31.7)
3400m - 4:31.32 - (31.9)
3800m - 5:03.40 - (32.0)
4200m - 5:35.39 - (31.9)
4600m - 6:07.05 - (31.6)
5000m - 6:38.29 - (31.2)
24.28 0
33 73 Maxim  Baklashkin KAZ KAZ 6:38.64200m - 19.83 - (19.8)
600m - 50.65 - (30.8)
1000m - 1:21.68 - (31.0)
1400m - 1:52.87 - (31.1)
1800m - 2:24.12 - (31.2)
2200m - 2:55.18 - (31.0)
2600m - 3:26.63 - (31.4)
3000m - 3:58.34 - (31.7)
3400m - 4:29.97 - (31.6)
3800m - 5:02.05 - (32.0)
4200m - 5:34.12 - (32.0)
4600m - 6:06.52 - (32.3)
5000m - 6:38.64 - (32.1)
24.63 0
34 145 Martin  Hänggi SUI SUI 6:39.01200m - 19.95 - (19.9)
600m - 50.99 - (31.0)
1000m - 1:21.93 - (30.9)
1400m - 1:52.75 - (30.8)
1800m - 2:24.49 - (31.7)
2200m - 2:56.11 - (31.6)
2600m - 3:27.65 - (31.5)
3000m - 3:59.47 - (31.8)
3400m - 4:31.18 - (31.7)
3800m - 5:03.38 - (32.1)
4200m - 5:35.41 - (32.0)
4600m - 6:07.37 - (31.9)
5000m - 6:39.01 - (31.6)
25.00 0
35 6 Maarten  Swings BEL BEL 6:41.91200m - 19.98 - (19.9)
600m - 51.52 - (31.5)
1000m - 1:23.14 - (31.6)
1400m - 1:54.50 - (31.3)
1800m - 2:26.13 - (31.6)
2200m - 2:57.88 - (31.7)
2600m - 3:30.13 - (32.2)
3000m - 4:02.17 - (32.0)
3400m - 4:33.85 - (31.6)
3800m - 5:05.28 - (31.4)
4200m - 5:37.01 - (31.7)
4600m - 6:09.04 - (32.0)
5000m - 6:41.91 - (32.8)
27.90 0
36 48 Robert  Lehmann GER GER 6:42.92200m - 18.96 - (18.9)
600m - 48.01 - (29.0)
1000m - 1:17.40 - (29.3)
1400m - 1:47.57 - (30.1)
1800m - 2:17.94 - (30.3)
2200m - 2:48.42 - (30.4)
2600m - 3:19.21 - (30.7)
3000m - 3:50.41 - (31.1)
3400m - 4:22.19 - (31.7)
3800m - 4:54.96 - (32.7)
4200m - 5:31.58 - (36.6)
4600m - 6:08.23 - (36.6)
5000m - 6:42.92 - (34.6)
28.91 0
37 25 Yan  Liu CHN CHN 6:44.10200m - 20.72 - (20.7)
600m - 52.02 - (31.3)
1000m - 1:23.47 - (31.4)
1400m - 1:55.06 - (31.5)
1800m - 2:26.72 - (31.6)
2200m - 2:58.71 - (31.9)
2600m - 3:30.92 - (32.2)
3000m - 4:03.46 - (32.5)
3400m - 4:35.96 - (32.4)
3800m - 5:08.62 - (32.6)
4200m - 5:41.26 - (32.6)
4600m - 6:13.23 - (31.9)
5000m - 6:44.10 - (30.8)
30.09 0
38 120 Reyon  Kay NZL NZL 6:54.92200m - 19.55 - (19.5)
600m - 49.53 - (29.9)
1000m - 1:20.14 - (30.6)
1400m - 1:50.94 - (30.7)
1800m - 2:21.91 - (30.9)
2200m - 2:52.84 - (30.9)
2600m - 3:24.09 - (31.2)
3000m - 3:55.93 - (31.8)
3400m - 4:29.09 - (33.1)
3800m - 5:03.57 - (34.4)
4200m - 5:39.95 - (36.3)
4600m - 6:17.00 - (37.0)
5000m - 6:54.92 - (37.9)
40.91 0
39 30 Zdenek  Haselberger CZE CZE 7:04.42200m - 19.85 - (19.8)
600m - 51.70 - (31.8)
1000m - 1:24.13 - (32.4)
1400m - 1:56.21 - (32.0)
1800m - 2:28.91 - (32.7)
2200m - 3:01.84 - (32.9)
2600m - 3:35.36 - (33.5)
3000m - 4:09.89 - (34.5)
3400m - 4:44.54 - (34.6)
3800m - 5:19.11 - (34.5)
4200m - 5:54.24 - (35.1)
4600m - 6:29.52 - (35.2)
5000m - 7:04.42 - (34.9)
50.41 0
40 33 Robert  Brandt FIN FIN DNS 0